C/2014 OE4 ( PanSTARRS )

Japanese version
Home page
Updated on May 21, 2018

---------------------------------------------------------------------

* Profile

Discovery Date July 26, 2014
Magnitude 20.7 mag
Discoverer Pan-STARRS 1 telescope (Haleakala)

* Pictures

* Orbital Elements

Epoch 2016 Nov. 28.0 TT = JDT 2457720.5
T 2016 Dec. 10.75288 TT                                 MPCW
q   6.2442880            (2000.0)            P               Q
z  +0.0000889      Peri.   65.74367     -0.08367935     +0.50406471
 +/-0.0000002      Node   240.40004     -0.74841252     +0.53775891
e   0.9994448      Incl.   81.34884     +0.65793348     +0.67582107
From 1328 observations 2014 May 8-2018 Mar. 17, mean residual 0".4.

* Magnitudes Graph

        m1 = -4.0 + 5 log d + 20 log r(t - 180)

---------------------------------------------------------------------

The orbital elements are published on M.P.E.C. 2018-F152.
The magnitudes graphs are made with Comet for Windows.

---------------------------------------------------------------------

Copyright(C) Seiichi Yoshida (comet@aerith.net). All rights reserved.